When you browse on this site, cookies collect data to enhance your experience and personalize the content and advertising you see.
Visit our Privacy Policy to learn more. By continuing to use the site, you agree to this use of cookies and data.
  • en Suisse
  • Liste des pays
  • À 7 jours
  • Température de l'eau
  • Carte météo
  • Widgets météo
  • user-avatar
    Se connecter

    Météo par heure à Elbasan

    Ce jour, 2 Juin, Mardi

    Heure Température Précipitation Vent Pression Humidité
    00:00 +12°C° 0 mm 1 m/s 732 mmHg 88%
    01:00 +12°C° 0 mm 1 m/s 732 mmHg 88%
    02:00 +12°C° 0 mm 1 m/s 732 mmHg 87%
    03:00 +12°C° 0 mm 1 m/s 732 mmHg 86%
    04:00 +11°C° 0 mm 1 m/s 731 mmHg 85%
    05:00 +13°C° 0 mm 1 m/s 732 mmHg 80%
    06:00 +15°C° 0 mm 1 m/s 732 mmHg 74%
    07:00 +16°C° 0 mm 0 m/s 732 mmHg 68%
    08:00 +19°C° 0 mm 1 m/s 732 mmHg 62%
    09:00 +21°C° 0 mm 1 m/s 732 mmHg 57%
    10:00 +21°C° 0 mm 2 m/s 731 mmHg 52%
    11:00 +21°C° 0.1 mm 2 m/s 731 mmHg 53%
    12:00 +21°C° 0.1 mm 3 m/s 731 mmHg 54%
    13:00 +22°C° 0 mm 4 m/s 731 mmHg 55%
    14:00 +21°C° 0.2 mm 4 m/s 731 mmHg 57%
    15:00 +21°C° 0.2 mm 4 m/s 730 mmHg 59%
    16:00 +20°C° 0.2 mm 3 m/s 730 mmHg 61%
    17:00 +18°C° 0 mm 3 m/s 730 mmHg 68%
    18:00 +17°C° 0 mm 2 m/s 730 mmHg 75%
    19:00 +15°C° 0 mm 1 m/s 730 mmHg 81%
    20:00 +15°C° 0 mm 1 m/s 730 mmHg 83%
    21:00 +14°C° 0 mm 1 m/s 730 mmHg 85%
    22:00 +13°C° 0 mm 1 m/s 730 mmHg 87%
    23:00 +13°C° 0 mm 1 m/s 730 mmHg 86%

    Demain, 3 Juin, Mercredi

    Heure Température Précipitation Vent Pression Humidité
    00:00 +13°C° 0 mm 1 m/s 730 mmHg 85%
    01:00 +13°C° 0 mm 1 m/s 730 mmHg 84%
    02:00 +13°C° 0 mm 1 m/s 730 mmHg 83%
    03:00 +12°C° 0 mm 1 m/s 730 mmHg 82%
    04:00 +12°C° 0 mm 1 m/s 730 mmHg 81%
    05:00 +14°C° 0 mm 1 m/s 730 mmHg 76%
    06:00 +16°C° 0 mm 1 m/s 730 mmHg 71%
    07:00 +19°C° 0 mm 1 m/s 730 mmHg 67%
    08:00 +20°C° 0 mm 1 m/s 730 mmHg 62%
    09:00 +20°C° 0 mm 2 m/s 730 mmHg 58%
    10:00 +21°C° 0 mm 2 m/s 731 mmHg 54%
    11:00 +23°C° 0 mm 2 m/s 730 mmHg 52%
    12:00 +22°C° 0 mm 3 m/s 730 mmHg 50%
    13:00 +24°C° 0 mm 3 m/s 730 mmHg 49%
    14:00 +24°C° 0 mm 3 m/s 730 mmHg 51%
    15:00 +22°C° 0 mm 3 m/s 730 mmHg 54%
    16:00 +22°C° 0 mm 3 m/s 730 mmHg 56%
    17:00 +20°C° 0 mm 2 m/s 730 mmHg 64%
    18:00 +18°C° 0 mm 2 m/s 730 mmHg 72%
    19:00 +16°C° 0 mm 1 m/s 730 mmHg 80%
    20:00 +16°C° 0 mm 1 m/s 730 mmHg 81%
    21:00 +15°C° 0 mm 1 m/s 731 mmHg 81%
    22:00 +15°C° 0 mm 1 m/s 731 mmHg 82%
    23:00 +14°C° 0 mm 1 m/s 731 mmHg 81%

    Après-demain, 4 Juin, Jeudi

    Heure Température Précipitation Vent Pression Humidité
    00:00 +14°C° 0 mm 1 m/s 731 mmHg 81%
    01:00 +14°C° 0 mm 1 m/s 731 mmHg 80%
    02:00 +14°C° 0 mm 1 m/s 731 mmHg 78%
    03:00 +14°C° 0 mm 1 m/s 731 mmHg 75%
    04:00 +14°C° 0 mm 2 m/s 731 mmHg 73%
    05:00 +16°C° 0 mm 1 m/s 731 mmHg 66%
    06:00 +19°C° 0 mm 1 m/s 731 mmHg 59%
    07:00 +21°C° 0 mm 1 m/s 731 mmHg 53%
    08:00 +22°C° 0 mm 1 m/s 732 mmHg 51%
    09:00 +23°C° 0 mm 2 m/s 732 mmHg 50%
    10:00 +25°C° 0 mm 2 m/s 732 mmHg 48%
    11:00 +25°C° 0 mm 3 m/s 732 mmHg 47%
    12:00 +26°C° 0 mm 3 m/s 732 mmHg 47%
    13:00 +26°C° 0 mm 4 m/s 732 mmHg 46%
    14:00 +26°C° 0 mm 4 m/s 732 mmHg 47%
    15:00 +26°C° 0 mm 4 m/s 732 mmHg 49%
    16:00 +25°C° 0 mm 4 m/s 732 mmHg 50%
    17:00 +22°C° 0 mm 3 m/s 732 mmHg 57%
    18:00 +20°C° 0 mm 2 m/s 732 mmHg 63%
    19:00 +18°C° 0 mm 2 m/s 732 mmHg 70%
    20:00 +19°C° 0 mm 1 m/s 732 mmHg 71%
    21:00 +18°C° 0 mm 1 m/s 732 mmHg 72%
    22:00 +16°C° 0 mm 1 m/s 733 mmHg 73%
    23:00 +16°C° 0 mm 1 m/s 732 mmHg 72%

    5 Juin, Vendredi

    Heure Température Précipitation Vent Pression Humidité
    00:00 +16°C° 0 mm 2 m/s 732 mmHg 71%
    01:00 +16°C° 0 mm 2 m/s 732 mmHg 70%
    02:00 +15°C° 0 mm 2 m/s 732 mmHg 70%
    03:00 +15°C° 0 mm 2 m/s 732 mmHg 69%
    04:00 +15°C° 0 mm 2 m/s 731 mmHg 68%
    05:00 +17°C° 0 mm 2 m/s 731 mmHg 65%
    06:00 +18°C° 0 mm 2 m/s 732 mmHg 61%
    07:00 +20°C° 0 mm 2 m/s 732 mmHg 58%
    08:00 +21°C° 0 mm 2 m/s 732 mmHg 54%
    09:00 +23°C° 0 mm 2 m/s 732 mmHg 50%
    10:00 +24°C° 0 mm 3 m/s 732 mmHg 46%
    11:00 +24°C° 0 mm 2 m/s 732 mmHg 48%
    12:00 +24°C° 0 mm 2 m/s 731 mmHg 51%
    13:00 +24°C° 0 mm 1 m/s 731 mmHg 54%
    14:00 +24°C° 0 mm 2 m/s 731 mmHg 53%
    15:00 +24°C° 0 mm 3 m/s 730 mmHg 52%
    16:00 +25°C° 0 mm 4 m/s 730 mmHg 51%
    17:00 +21°C° 0.6 mm 3 m/s 730 mmHg 63%
    18:00 +19°C° 0.6 mm 3 m/s 730 mmHg 74%
    19:00 +16°C° 0.6 mm 2 m/s 730 mmHg 86%
    20:00 +16°C° 0.4 mm 2 m/s 731 mmHg 85%
    21:00 +16°C° 0.4 mm 2 m/s 731 mmHg 84%
    22:00 +16°C° 0.4 mm 2 m/s 731 mmHg 83%
    23:00 +16°C° 0.1 mm 2 m/s 731 mmHg 82%

    6 Juin, Samedi

    Heure Température Précipitation Vent Pression Humidité
    00:00 +16°C° 0.1 mm 1 m/s 731 mmHg 81%
    01:00 +16°C° 0.1 mm 1 m/s 731 mmHg 80%
    02:00 +16°C° 0.1 mm 1 m/s 731 mmHg 81%
    03:00 +15°C° 0.1 mm 1 m/s 731 mmHg 81%
    04:00 +15°C° 0.1 mm 1 m/s 731 mmHg 82%
    05:00 +18°C° 0.1 mm 1 m/s 731 mmHg 78%
    06:00 +19°C° 0.1 mm 1 m/s 732 mmHg 74%
    07:00 +20°C° 0.1 mm 1 m/s 732 mmHg 70%
    08:00 +22°C° 0 mm 1 m/s 732 mmHg 66%
    09:00 +23°C° 0 mm 1 m/s 733 mmHg 61%
    10:00 +25°C° 0 mm 1 m/s 733 mmHg 56%
    11:00 +25°C° 0.1 mm 2 m/s 733 mmHg 55%
    12:00 +26°C° 0.1 mm 2 m/s 732 mmHg 54%
    13:00 +26°C° 0.1 mm 3 m/s 732 mmHg 53%
    14:00 +26°C° 0 mm 3 m/s 732 mmHg 53%
    15:00 +26°C° 0 mm 2 m/s 732 mmHg 54%
    16:00 +26°C° 0 mm 2 m/s 732 mmHg 55%
    17:00 +24°C° 0 mm 2 m/s 732 mmHg 63%
    18:00 +22°C° 0 mm 1 m/s 732 mmHg 71%
    19:00 +20°C° 0 mm 1 m/s 732 mmHg 80%
    20:00 +19°C° 0 mm 1 m/s 732 mmHg 80%
    21:00 +19°C° 0 mm 1 m/s 733 mmHg 81%
    22:00 +18°C° 0 mm 1 m/s 733 mmHg 82%
    23:00 +18°C° 0 mm 1 m/s 733 mmHg 80%

    7 Juin, Dimanche

    Heure Température Précipitation Vent Pression Humidité
    00:00 +18°C° 0 mm 1 m/s 733 mmHg 79%
    01:00 +18°C° 0 mm 1 m/s 733 mmHg 78%
    02:00 +16°C° 0 mm 1 m/s 733 mmHg 78%
    03:00 +16°C° 0 mm 1 m/s 733 mmHg 78%
    04:00 +16°C° 0 mm 1 m/s 733 mmHg 78%
    05:00 +19°C° 0 mm 1 m/s 733 mmHg 73%
    06:00 +19°C° 0 mm 0 m/s 733 mmHg 68%
    07:00 +21°C° 0 mm 0 m/s 733 mmHg 63%
    08:00 +24°C° 0 mm 1 m/s 734 mmHg 59%
    09:00 +25°C° 0 mm 1 m/s 734 mmHg 55%
    10:00 +27°C° 0 mm 2 m/s 734 mmHg 51%
    11:00 +27°C° 0 mm 2 m/s 734 mmHg 50%
    12:00 +28°C° 0 mm 3 m/s 734 mmHg 49%
    13:00 +28°C° 0 mm 3 m/s 733 mmHg 49%
    14:00 +28°C° 0 mm 3 m/s 733 mmHg 52%
    15:00 +27°C° 0 mm 3 m/s 733 mmHg 55%
    16:00 +26°C° 0 mm 3 m/s 733 mmHg 59%
    17:00 +24°C° 0 mm 2 m/s 733 mmHg 65%
    18:00 +23°C° 0 mm 1 m/s 733 mmHg 70%
    19:00 +21°C° 0 mm 1 m/s 733 mmHg 76%
    20:00 +20°C° 0 mm 1 m/s 733 mmHg 76%
    21:00 +20°C° 0 mm 1 m/s 734 mmHg 75%
    22:00 +20°C° 0 mm 1 m/s 734 mmHg 74%
    23:00 +19°C° 0.1 mm 1 m/s 734 mmHg 75%
    Voir plus